map of CIY home
Great Circle Mapper logo
CIY - Airport
Location
City:  Comiso, Sicily, Italy
Name:Comiso Airport
Old (Alt.):Vincenzo Magliocco Airport
ICAO / IATA:LICB / CIY

Details
Type:Airport (Aerodrome, Airfield)
Use:Public/Civil
Latitude:3659'43"N (36.995278)
Longitude:1436'29"E (14.608056)
Elevation:620 ft (189 m)
Variation:2.7E (WMM2010 magnetic declination)
Runways:1
Longest:8071 × 148 ft (2460 × 45 m)

Time
Time Zone:UTC+1 (DST+2)
Local Time:

Weather
METAR:LICB 261017Z 27008KT 240V320 5000 RA VCTS FEW005CB BKN010 16/14 Q1018

Related Locations
Nearby:
Farthest:CHT: 11689 mi / 18811 km
Waitangi [Tuuta], Chatham Islands, NZ

Find:

   beyond  
but within

Other Information
Maps:
NOTAMs:
Links:
Sources:

  
flag of Italy
flag of Sicily
  

Sectional Chart

Flight Planning
at skyvector.com

Satellite Image

Google Maps Satellite View

 

Copyright © 2004-2014 Karl L. Swartz. All rights reserved.
The Great Circle Mapper name and logo are trademarks of the Great Circle Mapper.
All other trademarks mentioned herein belong to their respective owners.
Please see credits for attibutions and further copyright information.

  Follow gcmap on Facebook Follow gcmap on Twitter

hCard Microformat

Geo Microformat